Wetbulb
53.91 49.58 46.60 50.18 51.63 53.64 50.59 50.23 48.75 52.48 54.98 52.22 51.67 52.36 54.83 57.65 59.06 58.93 60.88 62.92 57.79 57.37 61.73 62.73 67.28 68.59 68.88 68.62 68.81 68.63 68.07 67.53 68.01 66.18 65.56 64.23 63.56 64.51 64.54 64.95 65.41 64.99 63.82 60.45
50.16 47.16 52.13 55.76 54.09 53.15 51.53 48.71 49.13 52.38 54.98 52.00 52.64 52.50 55.13 56.37 56.36 57.84 59.04 59.48 60.49 58.86 59.86 62.03 62.70 68.61 67.53 67.09 67.83 67.42 67.74 67.17 66.66 66.32 65.32 64.22 63.90 63.97 63.89 63.77 63.76 63.72 60.35 59.89
48.04 51.49 55.09 54.72 52.36 51.73 51.13 48.21 49.69 49.49 51.96 52.03 50.18 47.51 51.96 56.25 57.42 58.03 59.13 58.17 59.78 59.26 58.73 60.25 65.63 66.80 66.92 67.17 67.11 67.09 66.99 66.48 66.32 66.28 64.85 64.30 64.04 63.23 62.05 61.53 61.08 59.72 59.92 57.52
49.91 54.37 53.93 53.22 52.03 53.84 46.66 53.88 52.76 50.82 45.52 42.12 47.65 39.03 47.37 53.04 54.94 56.16 58.50 58.13 59.03 60.40 60.30 59.21 66.36 66.28 66.50 67.41 67.68 66.92 65.41 65.01 65.88 65.23 63.30 62.63 61.09 59.84 60.31 60.47 59.99 57.51 58.69 55.92
50.39 51.65 51.53 51.31 52.91 54.44 50.78 54.67 49.11 48.63 45.59 42.83 46.02 42.40 45.13 52.08 50.57 52.13 55.51 57.52 56.58 60.33 62.12 65.21 65.53 65.88 66.34 67.01 66.28 65.95 65.55 64.85 64.54 63.87 62.91 61.72 59.55 59.72 60.25 60.13 57.96 55.18 54.53 54.77
50.98 54.24 52.54 53.19 55.04 53.64 54.43 50.75 48.07 45.16 42.68 38.32 42.85 43.28 42.69 47.77 50.58 53.00 57.35 57.25 57.27 63.68 63.96 61.23 65.86 66.25 65.01 66.13 66.04 65.48 65.39 62.84 60.83 60.16 58.94 58.78 58.97 58.02 57.32 55.85 57.17 56.40 54.37 53.67
49.85 51.40 54.15 55.64 51.31 52.94 50.79 43.86 38.12 37.28 37.41 37.72 43.89 44.48 44.57 52.14 54.40 55.07 56.86 59.28 60.08 62.01 61.34 60.46 62.91 64.82 64.93 64.54 64.60 64.46 64.55 61.77 58.72 58.62 57.98 57.69 55.51 54.85 53.02 50.23 50.22 53.01 53.48 52.55
44.03 44.23 52.38 55.59 51.48 48.36 48.03 44.52 39.00 33.98 34.96 38.59 46.06 42.70 47.00 54.22 55.27 57.39 57.89 58.29 59.12 60.44 60.55 60.54 62.21 65.01 65.17 64.34 64.08 64.17 62.80 60.02 57.70 57.64 58.01 57.23 56.73 54.92 53.59 50.98 50.67 51.81 52.30 52.66
45.12 46.61 54.78 55.59 55.43 52.71 47.61 43.89 46.58 41.80 41.17 38.82 42.68 46.71 52.07 54.96 54.92 56.27 55.39 57.60 57.74 59.05 59.81 60.16 60.65 59.56 64.14 64.52 64.39 63.56 61.82 58.43 57.46 56.62 56.32 54.44 54.01 52.94 51.98 51.16 51.55 53.00 52.87 53.75
50.02 44.80 53.41 55.93 56.02 53.49 49.56 50.26 42.56 41.53 35.54 33.66 40.35 42.33 43.68 48.75 51.20 53.25 53.05 54.31 55.03 57.02 58.19 59.21 60.39 59.76 60.41 64.30 63.93 63.27 61.24 57.89 57.80 57.07 56.84 55.81 54.44 53.65 52.46 51.89 51.16 52.79 52.20 52.78
50.48 47.92 49.01 52.17 48.24 46.96 46.79 43.98 45.95 43.89 42.40 37.92 36.31 40.14 49.85 49.65 51.55 51.61 52.86 54.76 54.29 55.66 58.17 58.85 58.97 62.09 63.26 64.29 62.86 61.77 58.94 55.81 56.61 57.71 57.66 56.60 54.90 54.20 53.22 51.90 51.86 52.82 52.41 53.10
51.69 47.03 42.74 46.20 50.53 51.13 48.42 45.32 46.50 41.04 39.98 42.45 40.67 40.69 53.88 51.86 52.38 54.10 54.89 54.93 53.59 56.39 57.46 57.64 58.25 59.54 63.21 61.63 60.61 59.29 57.59 56.80 58.35 58.91 58.67 57.16 56.15 53.78 52.37 51.84 51.99 52.15 52.46 53.68
50.45 43.23 37.89 40.29 43.90 49.07 47.10 48.92 47.76 45.87 43.52 41.87 39.29 40.63 52.73 53.95 52.42 54.56 51.89 55.23 55.22 55.62 56.89 57.22 56.95 57.60 57.08 59.08 58.49 57.33 57.19 57.61 57.62 58.45 57.10 55.91 54.21 53.25 52.40 52.54 52.89 53.14 53.46 53.59
53.33 44.28 41.58 37.58 40.95 46.66 46.59 48.84 48.71 45.82 40.37 41.46 42.14 43.97 48.04 50.75 51.95 53.77 55.35 53.79 54.83 56.58 55.87 57.61 56.39 56.48 56.99 57.77 57.28 57.54 56.09 56.65 56.64 58.31 57.69 55.14 54.34 54.19 53.46 53.62 53.93 54.20 54.45 53.99
51.45 45.00 46.30 47.80 50.81 51.77 50.83 50.67 49.88 47.08 46.07 43.37 44.33 45.24 49.02 50.80 51.93 52.92 52.67 54.65 55.66 53.97 54.85 56.19 55.73 55.89 56.24 57.71 57.60 59.00 57.81 56.73 57.53 57.04 55.46 54.91 54.81 54.19 54.13 54.41 54.61 54.57 54.12 54.41
52.52 46.41 49.11 48.73 52.98 52.90 49.92 51.16 51.08 50.25 48.86 48.13 47.10 45.18 52.09 53.14 53.34 52.99 52.70 52.97 53.06 53.73 54.89 56.87 56.71 57.01 57.74 59.03 58.99 57.67 55.62 55.83 56.17 56.09 54.34 54.02 53.72 54.28 54.35 54.47 54.83 54.77 55.14 55.34
51.28 48.61 46.38 43.57 50.12 48.96 43.66 48.65 50.84 48.98 50.17 49.15 44.70 47.02 49.78 50.40 51.60 52.13 52.04 52.97 52.51 53.93 55.20 56.05 56.69 58.29 59.15 59.32 59.72 56.68 56.98 56.32 55.46 56.92 57.35 57.36 56.58 56.25 55.46 55.98 55.66 55.00 54.34 54.80
49.08 47.46 45.90 43.11 44.32 36.11 46.20 52.89 53.55 50.22 50.03 49.67 48.52 48.62 49.69 49.75 50.92 51.86 53.18 52.66 53.06 54.72 55.50 55.19 57.21 56.86 57.61 55.99 53.73 54.07 53.72 52.90 52.08 52.20 53.64 54.21 53.55 53.01 54.39 53.28 52.27 53.21 53.22 53.16
53.56 48.51 43.10 40.45 40.95 45.86 50.41 51.73 49.99 46.98 46.47 50.44 49.42 50.28 50.22 51.27 50.78 50.16 54.11 54.62 53.51 53.97 54.95 54.54 55.77 54.77 52.12 50.90 50.31 49.79 48.76 48.98 49.77 50.09 50.25 51.00 51.15 49.51 50.97 49.12 49.10 49.13 49.80 50.34
54.50 52.04 45.67 42.25 39.39 37.42 48.23 54.26 56.40 53.91 43.99 51.44 51.44 50.94 50.36 50.99 43.86 46.67 52.74 54.92 54.92 54.98 55.27 53.98 52.93 52.38 50.30 48.65 47.63 46.51 45.10 44.83 45.63 47.24 46.87 46.77 47.77 45.94 42.02 42.00 43.88 45.88 46.34 47.88
48.26 47.18 43.86 41.75 41.42 45.67 53.20 53.91 55.03 43.83 44.51 53.07 53.09 52.77 52.06 50.03 50.13 51.71 53.98 55.52 54.55 53.23 51.95 50.66 49.01 48.53 47.85 46.20 44.47 42.25 41.41 40.97 43.65 43.84 43.61 43.18 44.11 40.12 38.99 38.93 40.42 39.50 42.32 44.86
47.42 44.86 43.93 45.58 42.63 41.38 55.92 54.98 48.40 50.92 55.08 55.70 55.32 54.78 53.38 53.73 52.78 54.76 55.46 54.01 52.41 50.96 49.73 48.57 46.47 45.46 44.96 43.59 42.16 39.54 38.65 40.38 41.73 41.36 41.17 40.47 39.84 39.32 39.63 37.43 37.12 38.42 38.42 36.87
46.08 49.07 47.65 48.43 45.44 51.91 55.28 52.53 55.36 55.22 54.61 54.84 55.23 56.94 56.28 54.20 54.20 55.21 53.70 52.53 51.84 50.31 48.92 47.70 45.46 43.48 42.35 41.49 40.44 38.67 39.48 41.04 41.03 39.47 38.78 38.46 37.26 37.77 37.10 36.78 37.94 35.32 35.79 33.49
52.31 55.03 49.80 48.74 51.26 52.74 54.38 55.55 56.04 56.71 56.50 57.45 58.43 57.76 57.09 55.22 55.65 54.43 52.94 51.86 51.24 49.99 48.00 46.75 45.54 42.29 40.29 40.21 40.61 40.00 41.11 40.84 39.11 37.78 37.89 38.21 36.38 37.10 37.50 38.10 36.45 34.38 33.20 33.12
52.64 52.59 49.92 49.09 51.01 52.45 54.11 54.80 56.04 55.60 56.71 56.85 58.24 57.06 56.32 56.17 54.20 53.17 52.33 50.71 49.86 49.53 48.45 46.30 45.04 41.65 39.72 39.25 39.05 40.90 41.35 40.60 39.55 39.20 38.47 36.97 36.57 34.66 34.95 34.94 34.04 35.02 34.46 34.32
54.26 50.81 46.87 46.74 52.16 50.85 50.48 54.15 57.31 54.25 54.70 55.87 55.14 54.75 55.91 55.58 53.95 52.46 48.62 47.68 45.71 43.94 43.56 43.05 40.88 40.62 41.46 40.80 40.17 40.86 41.50 40.64 39.36 37.90 36.79 36.49 35.66 34.17 33.72 32.86 33.49 37.40 37.29 37.99
MSLP
1008.20 1009.28 1009.77 1009.47 1009.57 1009.30 1009.60 1009.79 1009.62 1008.34 1007.92 1008.39 1007.82 1007.44 1007.08 1007.62 1008.21 1008.94 1009.31 1010.16 1010.72 1011.29 1011.69 1010.84 1008.23 1012.74 1012.55 1012.28 1012.89 1013.48 1014.28 1014.83 1015.22 1015.80 1016.10 1016.65 1016.84 1016.98 1017.12 1016.89 1016.92 1017.31 1017.74 1018.14
1008.97 1009.07 1008.30 1008.45 1008.70 1008.86 1008.98 1009.38 1008.91 1008.41 1007.16 1007.99 1007.27 1007.74 1008.14 1008.57 1009.09 1009.50 1010.05 1011.28 1012.02 1012.60 1011.83 1011.20 1009.47 1011.40 1011.77 1012.56 1013.33 1013.72 1014.52 1015.20 1015.31 1015.52 1016.08 1016.82 1017.09 1017.17 1017.20 1017.12 1017.07 1017.35 1017.73 1018.00
1008.76 1007.93 1007.66 1008.22 1007.81 1008.45 1008.40 1008.75 1008.24 1008.25 1007.28 1006.98 1007.38 1008.40 1008.58 1009.55 1010.09 1010.98 1011.19 1011.56 1012.40 1012.58 1012.93 1012.27 1011.63 1011.92 1012.18 1012.49 1013.27 1013.73 1014.70 1015.23 1015.25 1015.55 1016.38 1016.43 1017.11 1017.88 1018.14 1017.79 1017.65 1017.40 1017.41 1017.84
1008.16 1007.51 1007.54 1006.92 1007.25 1007.44 1007.95 1006.50 1007.37 1007.75 1007.53 1007.76 1007.98 1009.31 1009.86 1010.78 1011.49 1011.80 1012.53 1012.38 1012.34 1012.88 1012.84 1012.83 1012.70 1012.33 1012.19 1012.31 1013.60 1013.88 1014.36 1014.88 1015.28 1015.65 1016.22 1016.55 1017.47 1017.87 1018.13 1018.34 1018.05 1017.91 1017.66 1017.90
1007.08 1007.02 1006.88 1006.52 1006.20 1006.16 1006.83 1006.64 1007.04 1007.07 1007.79 1008.47 1008.74 1009.89 1011.35 1011.80 1012.53 1013.31 1013.13 1012.09 1011.73 1012.89 1012.75 1013.04 1012.85 1012.82 1012.84 1013.25 1013.82 1014.15 1014.09 1015.11 1015.49 1015.98 1016.20 1016.58 1017.58 1017.64 1017.88 1018.41 1018.86 1018.67 1018.32 1017.99
1006.68 1006.08 1005.98 1005.30 1005.31 1005.73 1006.21 1006.40 1007.16 1008.21 1008.99 1009.94 1010.17 1011.04 1012.15 1012.60 1013.36 1013.47 1013.30 1012.03 1011.46 1012.59 1013.41 1013.29 1012.62 1012.97 1013.28 1013.55 1014.00 1014.55 1014.23 1015.41 1015.68 1016.01 1016.43 1016.93 1017.83 1017.99 1018.08 1018.67 1019.05 1019.02 1018.79 1018.48
1006.51 1006.09 1005.23 1004.84 1005.09 1005.34 1006.20 1007.74 1008.74 1009.96 1010.83 1011.03 1010.75 1011.53 1012.06 1012.86 1013.28 1013.56 1013.13 1012.66 1012.29 1012.40 1012.56 1013.07 1012.61 1012.99 1013.61 1013.58 1014.53 1014.77 1014.46 1015.27 1015.56 1015.85 1016.58 1017.20 1017.76 1017.81 1018.23 1018.84 1019.16 1018.84 1018.59 1018.59
1007.27 1006.61 1005.63 1005.25 1005.76 1006.41 1007.02 1008.29 1009.56 1010.66 1011.66 1011.60 1011.10 1011.93 1012.05 1012.65 1013.14 1013.52 1013.61 1013.26 1012.72 1012.72 1012.13 1011.23 1012.42 1012.90 1013.81 1013.22 1014.09 1014.84 1014.73 1015.23 1015.57 1015.82 1016.80 1017.40 1017.64 1017.73 1017.87 1018.39 1018.82 1018.92 1018.57 1018.36
1007.27 1006.77 1005.87 1005.50 1005.88 1006.53 1007.27 1008.34 1008.95 1010.36 1011.58 1012.06 1012.01 1012.56 1012.56 1012.96 1013.27 1013.80 1014.12 1014.06 1013.76 1013.01 1012.66 1012.66 1012.43 1013.69 1011.92 1013.76 1014.35 1014.68 1014.58 1015.28 1015.59 1016.27 1016.96 1017.36 1017.22 1017.54 1017.78 1018.01 1018.61 1018.45 1018.36 1018.13
1007.06 1007.16 1006.45 1005.91 1006.08 1006.67 1007.18 1007.97 1009.12 1010.78 1012.18 1012.94 1012.62 1012.66 1012.74 1013.18 1013.40 1013.64 1013.88 1014.24 1014.21 1013.73 1013.34 1012.78 1012.23 1012.49 1013.25 1013.27 1013.97 1014.28 1014.68 1014.90 1015.33 1016.18 1017.01 1016.84 1017.11 1017.27 1017.57 1017.60 1018.47 1018.35 1018.16 1017.96
1007.13 1007.60 1007.58 1006.54 1007.23 1007.31 1007.24 1008.04 1009.46 1010.85 1012.02 1012.94 1013.34 1013.18 1012.57 1012.99 1013.54 1013.85 1014.10 1014.28 1014.28 1014.09 1013.82 1013.26 1012.42 1012.04 1012.50 1013.08 1013.50 1014.11 1014.53 1014.78 1015.40 1016.17 1016.79 1016.86 1017.02 1017.13 1017.32 1017.72 1018.10 1018.11 1017.95 1017.67
1007.57 1008.19 1008.57 1008.27 1007.39 1007.37 1007.59 1008.12 1009.31 1011.06 1012.08 1012.65 1013.12 1012.78 1012.46 1013.00 1013.75 1013.99 1014.23 1014.29 1014.20 1014.23 1014.01 1013.38 1013.04 1012.45 1012.86 1012.89 1013.42 1013.79 1014.37 1014.73 1015.06 1015.70 1016.22 1016.71 1016.96 1017.06 1017.41 1017.67 1017.79 1017.65 1017.61 1017.44
1007.72 1009.00 1009.58 1009.21 1008.64 1007.82 1007.83 1008.12 1008.81 1010.11 1011.24 1012.16 1013.18 1012.93 1012.82 1013.20 1014.04 1014.21 1014.36 1014.49 1014.67 1014.38 1014.22 1013.78 1013.24 1013.26 1013.54 1013.47 1013.25 1013.73 1014.11 1014.36 1014.68 1015.54 1016.05 1016.52 1016.82 1017.11 1017.35 1017.50 1017.38 1017.23 1017.24 1017.06
1007.99 1009.52 1010.03 1010.01 1009.25 1008.81 1008.61 1008.12 1008.62 1009.68 1011.17 1011.70 1012.20 1012.75 1013.35 1013.77 1014.14 1014.53 1014.54 1014.58 1014.55 1014.54 1014.69 1014.61 1014.46 1014.45 1014.08 1014.13 1013.97 1014.00 1014.11 1014.31 1015.03 1015.09 1015.63 1016.32 1016.62 1016.88 1017.04 1017.02 1016.69 1016.62 1016.48 1016.54
1008.54 1009.72 1010.03 1009.75 1009.32 1008.65 1008.38 1008.12 1008.18 1009.12 1009.79 1010.99 1011.59 1012.56 1013.24 1013.65 1013.86 1014.33 1014.77 1014.74 1014.65 1014.60 1014.85 1014.91 1014.70 1014.61 1014.44 1014.18 1014.04 1014.03 1014.55 1014.59 1014.58 1014.89 1015.46 1015.90 1015.95 1016.31 1016.58 1016.35 1016.29 1016.14 1016.22 1016.15
1009.30 1009.85 1010.04 1009.78 1008.96 1008.63 1008.15 1007.65 1007.81 1008.22 1009.39 1010.43 1011.38 1012.48 1012.81 1013.24 1013.48 1013.96 1014.31 1014.55 1014.54 1014.64 1014.68 1014.38 1014.50 1014.36 1014.31 1014.41 1014.34 1014.48 1015.07 1015.23 1015.09 1015.28 1015.29 1015.79 1016.29 1016.81 1016.61 1016.46 1016.58 1016.50 1016.47 1016.38
1010.23 1010.26 1010.45 1010.02 1009.16 1008.53 1008.13 1007.14 1007.28 1008.35 1009.01 1010.01 1011.35 1011.74 1012.63 1013.28 1013.29 1013.34 1013.87 1014.06 1014.03 1014.06 1014.13 1014.20 1014.09 1014.20 1014.30 1014.35 1014.49 1015.07 1015.40 1015.75 1015.87 1016.16 1016.14 1016.58 1016.94 1017.00 1016.78 1016.85 1016.79 1016.85 1016.97 1016.70
1010.08 1010.50 1010.55 1010.39 1010.08 1009.17 1007.87 1007.50 1007.51 1008.43 1009.40 1009.91 1010.78 1011.55 1012.09 1012.56 1012.69 1012.77 1013.00 1013.40 1013.67 1013.71 1013.82 1013.99 1014.26 1014.70 1014.72 1014.84 1014.98 1015.64 1016.00 1016.38 1016.54 1016.62 1017.04 1017.19 1017.03 1017.07 1017.06 1016.96 1017.04 1016.93 1016.76 1016.72
1009.14 1010.40 1011.32 1011.05 1010.82 1009.61 1008.93 1009.03 1009.63 1009.33 1010.21 1010.17 1010.77 1011.63 1011.91 1012.31 1012.67 1012.70 1012.40 1012.43 1012.73 1013.11 1013.43 1014.10 1014.71 1015.14 1015.34 1015.61 1015.92 1016.34 1016.92 1017.22 1017.36 1017.54 1017.69 1017.62 1017.55 1017.51 1017.35 1017.41 1017.42 1017.13 1017.06 1016.99
1009.10 1009.56 1011.21 1011.57 1011.22 1010.41 1010.47 1010.27 1009.33 1009.19 1010.30 1010.06 1010.05 1010.93 1011.11 1011.90 1012.51 1011.77 1011.77 1012.24 1012.62 1012.71 1013.03 1013.94 1014.83 1015.57 1015.90 1016.41 1016.60 1017.10 1017.72 1017.87 1018.13 1018.26 1018.30 1018.21 1018.03 1017.97 1017.96 1017.91 1017.62 1017.41 1017.16 1016.91
1009.92 1010.94 1011.06 1011.23 1010.81 1010.05 1010.29 1010.34 1009.86 1011.45 1009.80 1008.19 1008.89 1009.48 1010.01 1010.58 1010.08 1010.09 1011.03 1012.18 1012.89 1013.20 1013.65 1014.52 1015.46 1016.36 1017.07 1017.40 1017.50 1018.00 1018.46 1018.70 1018.76 1018.56 1018.46 1018.38 1018.31 1018.21 1018.22 1018.03 1017.87 1017.74 1017.44 1017.16
1010.30 1010.92 1011.09 1010.91 1010.50 1009.84 1008.99 1010.12 1009.90 1009.20 1008.45 1008.00 1008.80 1008.90 1008.92 1009.11 1009.66 1009.85 1010.61 1011.92 1013.16 1013.71 1014.37 1015.13 1015.87 1016.70 1017.21 1017.51 1017.87 1018.59 1018.71 1019.01 1018.82 1018.72 1018.72 1018.85 1018.83 1018.77 1018.61 1018.45 1018.12 1017.96 1018.00 1017.92
1010.79 1011.24 1011.59 1010.86 1010.04 1008.81 1008.42 1008.41 1008.39 1008.73 1008.63 1008.37 1008.47 1008.65 1008.17 1009.12 1009.29 1009.95 1011.00 1012.03 1013.32 1013.95 1014.64 1015.24 1016.01 1016.99 1017.51 1017.70 1017.88 1018.43 1018.85 1018.98 1019.19 1019.32 1019.41 1019.36 1019.27 1019.19 1018.96 1018.83 1018.68 1018.50 1018.36 1018.27
1010.55 1009.55 1009.60 1010.27 1008.49 1008.60 1008.15 1008.20 1008.16 1008.07 1008.06 1007.99 1008.01 1007.42 1008.60 1008.83 1009.46 1010.27 1011.06 1012.07 1013.03 1014.01 1014.50 1015.48 1015.80 1016.71 1017.62 1017.85 1018.06 1018.49 1018.93 1019.31 1019.69 1019.95 1019.98 1019.66 1019.53 1019.44 1019.17 1018.94 1018.83 1018.80 1018.63 1018.42
1008.98 1009.27 1010.14 1009.72 1008.28 1007.92 1007.95 1007.78 1007.46 1007.71 1007.89 1007.90 1007.77 1007.09 1007.26 1008.89 1010.10 1010.71 1011.84 1012.91 1013.77 1014.49 1015.25 1015.56 1016.56 1016.78 1017.57 1017.82 1018.30 1018.54 1018.83 1019.21 1019.64 1020.05 1019.96 1019.83 1019.75 1019.61 1019.44 1019.22 1019.04 1018.86 1018.35 1018.31
1008.27 1008.80 1009.19 1008.20 1007.35 1007.03 1007.16 1007.08 1007.30 1007.98 1008.14 1008.20 1008.52 1008.72 1008.89 1009.23 1010.26 1011.54 1013.05 1013.67 1014.43 1015.16 1015.80 1016.31 1017.05 1017.28 1017.89 1018.23 1018.57 1018.67 1018.87 1019.24 1019.55 1019.84 1020.01 1020.09 1019.93 1019.80 1019.65 1019.43 1019.06 1018.22 1018.00 1017.69
Wind_Speed
5 3 6 10 8 8 4 4 7 17 10 4 9 12 12 4 11 9 6 8 8 13 9 9 27 10 2 8 8 8 9 6 6 2 3 2 3 2 2 3 6 6 5 8
5 7 13 11 6 7 7 5 15 13 17 9 17 19 2 7 2 6 4 5 7 1 3 2 11 11 10 10 9 8 7 6 4 3 3 1 2 1 2 2 3 6 7 7
7 15 7 11 6 5 12 5 12 13 10 6 2 6 3 4 7 10 5 4 2 5 2 6 9 12 10 11 9 10 8 6 4 4 3 4 4 4 2 1 1 4 8 7
8 11 13 20 7 6 5 18 15 16 4 5 7 5 2 4 6 7 1 2 6 5 5 7 7 8 10 10 7 9 9 7 5 7 4 6 4 4 3 2 2 4 5 7
14 8 8 10 16 6 10 15 9 3 1 3 7 5 3 4 3 3 4 9 11 2 5 5 6 6 6 9 8 8 10 8 6 6 5 6 3 2 2 2 3 4 3 6
10 4 6 9 10 6 6 3 7 5 3 5 5 6 5 1 3 5 5 8 11 6 8 7 7 6 6 7 9 6 11 8 8 8 6 7 7 5 6 2 2 3 1 3
7 7 8 2 4 6 12 7 4 5 5 6 3 3 5 4 1 2 5 6 5 7 9 5 7 10 8 9 7 6 12 9 8 9 8 7 7 8 8 4 2 4 4 2
3 5 7 4 3 2 4 6 5 6 5 6 4 4 4 6 4 6 5 3 1 4 9 13 9 8 9 1 8 7 10 10 8 9 9 7 8 5 5 6 4 3 3 4
4 5 4 5 2 6 3 5 5 4 1 2 2 2 3 4 5 6 5 3 5 6 7 1 4 10 10 10 9 10 10 7 8 8 7 7 7 7 7 7 5 4 4 3
7 2 2 1 4 1 4 4 4 4 2 3 5 3 5 2 2 3 5 4 2 0 1 4 7 9 4 13 8 8 10 12 10 9 8 7 7 6 4 5 5 6 6 5
3 4 6 5 2 5 8 6 4 4 5 6 2 7 5 5 2 4 2 4 4 5 1 4 2 6 12 12 12 11 10 9 8 7 7 8 6 6 6 5 5 6 4 5
2 5 1 7 9 4 5 5 4 6 5 3 5 7 3 3 2 4 4 3 3 3 3 3 6 6 11 14 13 13 10 9 10 11 7 7 6 6 6 6 7 6 6 4
3 3 4 12 9 6 3 4 2 3 3 4 5 6 3 4 5 2 4 5 3 1 2 2 5 5 3 8 12 10 10 10 10 8 8 7 7 7 7 7 7 6 6 7
8 4 8 8 9 3 6 7 3 6 4 4 5 4 1 2 3 4 4 5 2 3 1 2 6 5 4 4 2 3 4 6 7 9 9 9 8 8 7 8 7 7 7 7
5 6 5 6 8 6 7 11 11 8 6 6 5 7 6 7 6 5 6 3 5 3 3 4 4 3 4 6 6 3 5 4 7 9 8 8 7 7 7 8 7 7 6 6
1 4 6 5 8 8 10 13 10 6 4 6 6 2 6 5 4 6 7 8 7 6 6 5 6 4 5 6 5 6 6 6 5 1 6 1 3 4 4 4 4 4 5 5
5 5 3 5 3 2 6 7 6 4 3 8 6 7 8 5 7 8 8 7 7 9 7 4 5 3 3 4 5 7 5 7 7 8 9 7 5 5 6 6 6 6 5 4
3 3 2 3 2 1 7 5 6 6 2 5 6 8 9 8 7 4 7 8 7 6 4 5 5 2 3 6 11 10 10 8 7 8 7 5 6 6 5 5 6 4 3 5
7 4 2 2 3 5 1 5 3 3 5 6 10 7 7 6 4 4 8 8 8 8 7 5 5 5 7 8 9 11 8 7 8 7 6 6 5 5 6 6 6 4 4 2
5 3 7 3 3 4 3 8 16 8 6 7 9 13 13 8 5 7 11 9 6 4 11 13 9 6 8 6 7 10 8 9 8 7 6 6 5 6 6 5 5 3 3 4
4 2 6 3 3 4 3 10 12 4 12 11 15 15 15 12 10 9 9 8 9 11 14 10 9 8 7 6 8 10 7 7 4 5 5 7 7 6 6 5 4 5 6 6
6 6 5 2 2 7 11 6 7 7 6 6 4 8 16 12 9 13 15 15 13 14 13 11 12 10 6 7 10 8 9 5 6 6 7 7 7 5 5 6 6 4 4 5
2 4 2 4 8 5 5 6 5 7 3 4 4 2 8 11 13 15 14 14 12 13 11 11 12 10 7 7 8 9 4 6 6 7 7 6 6 6 6 6 6 4 3 2
6 6 5 3 5 10 10 6 6 6 8 5 6 3 4 13 15 14 13 14 13 12 13 10 13 12 8 7 8 7 6 6 6 6 5 5 5 6 6 4 3 3 3 3
3 7 4 7 9 4 8 9 5 8 6 5 3 3 12 15 12 15 13 11 10 9 9 8 8 10 8 7 7 6 6 6 5 3 4 5 4 5 5 4 2 3 4 4
3 8 6 8 10 5 4 7 6 4 2 3 6 9 10 15 17 14 11 11 11 11 10 10 7 8 7 7 6 6 6 5 4 3 4 4 3 3 4 4 6 8 7 8
Wind_Direction
276 59 244 239 214 221 212 234 259 280 259 203 249 267 279 231 137 145 140 159 123 139 157 112 75 341 284 93 115 128 125 144 140 119 121 125 164 139 149 144 138 140 118 122
350 252 235 226 234 270 279 257 275 281 267 169 253 264 76 11 104 139 125 85 112 182 193 216 147 151 208 141 135 116 124 146 147 131 102 117 144 226 120 139 123 135 123 126
196 249 259 233 252 217 267 242 270 238 285 228 100 306 117 36 83 47 57 47 10 235 131 250 166 160 146 134 139 133 139 150 153 129 90 74 62 42 15 55 106 139 137 134
222 261 229 253 248 173 250 264 236 252 49 291 141 275 36 65 57 37 359 352 265 270 288 196 161 152 150 129 132 131 128 137 163 143 147 135 160 160 198 218 161 142 135 129
262 263 260 252 242 233 235 275 229 282 349 57 335 79 307 354 82 303 331 231 239 157 187 159 136 157 101 114 127 132 119 98 96 116 135 127 130 175 139 79 102 93 109 119
242 231 200 232 243 214 240 33 46 43 86 33 270 122 287 339 296 349 358 7 70 98 93 57 52 30 111 131 129 147 111 113 101 104 112 129 156 126 104 115 190 132 147 135
318 310 293 322 360 358 39 45 351 358 353 224 203 67 217 171 76 90 52 22 53 125 136 154 177 178 180 149 132 153 127 131 126 112 98 108 115 109 121 130 197 171 161 159
156 345 360 344 97 284 294 135 152 233 222 252 302 174 251 148 178 140 137 170 358 199 198 176 194 188 134 288 159 154 136 127 129 120 124 130 137 146 150 162 180 185 163 175
153 245 289 75 191 143 303 337 198 143 320 55 216 314 302 171 139 154 170 130 239 274 243 320 36 69 148 201 179 162 130 142 145 136 140 171 165 153 166 159 164 169 162 173
205 263 256 313 42 286 135 237 341 9 247 270 286 184 210 322 265 17 355 158 181 184 155 227 215 179 169 213 157 149 156 160 165 161 176 172 172 164 156 146 183 184 190 192
160 121 278 61 327 261 319 334 58 124 138 182 241 258 199 204 150 288 296 189 237 210 200 329 63 162 177 160 156 167 170 168 164 171 184 174 173 168 164 185 208 211 208 213
324 142 287 237 266 241 219 202 135 124 259 218 165 270 221 188 161 245 166 115 340 70 356 50 103 100 157 166 163 171 178 184 178 186 177 168 164 165 176 196 208 200 219 220
193 355 26 342 346 350 351 317 150 123 74 201 147 260 25 139 118 212 154 173 139 17 52 30 20 48 73 170 172 179 187 194 184 168 154 157 163 180 192 210 215 211 222 231
107 147 158 196 219 207 292 303 202 150 144 209 216 169 98 128 166 156 204 204 199 181 7 15 56 37 62 79 139 202 216 198 172 159 152 164 180 202 206 219 213 219 220 228
107 190 185 238 247 251 276 284 286 197 196 162 211 184 178 193 201 185 191 185 193 166 130 117 101 50 77 60 46 104 135 166 147 140 150 182 196 213 221 222 229 233 237 247
79 242 189 249 233 260 288 284 287 164 133 86 127 157 177 180 156 162 172 157 167 169 186 145 142 79 57 80 69 81 81 113 88 181 162 203 355 291 276 299 317 341 321 302
180 185 135 251 261 311 306 256 176 114 129 144 180 201 159 173 180 186 174 180 180 183 176 141 88 42 39 73 81 103 77 45 59 90 70 67 71 51 49 43 53 44 20 16
191 150 161 225 355 249 245 353 133 122 136 114 95 154 172 176 207 186 171 179 200 219 172 130 100 359 3 77 79 84 79 76 67 63 68 65 58 55 59 54 40 27 23 33
128 129 281 150 198 272 197 25 11 117 243 190 153 174 182 162 123 254 208 192 193 205 194 149 123 103 83 85 89 86 72 68 65 56 53 37 38 45 49 33 12 354 5 4
146 86 147 156 188 234 196 31 53 54 324 212 176 183 174 147 166 238 192 178 173 162 137 129 121 117 105 94 92 90 72 58 47 40 32 23 26 57 34 12 360 335 322 308
148 253 193 199 201 287 133 110 82 81 249 191 188 188 174 188 196 195 140 134 138 140 123 108 90 90 80 77 87 79 75 65 61 50 35 26 27 28 25 2 5 351 10 42
201 170 215 132 143 256 178 173 170 216 297 173 203 216 197 195 152 147 144 139 143 139 119 113 102 98 97 98 95 87 69 43 41 33 29 19 21 10 6 3 347 24 43 55
143 123 359 170 223 266 187 213 191 179 230 197 180 195 200 171 161 150 141 137 145 134 126 126 120 114 106 101 100 87 73 60 43 33 20 19 7 356 358 10 6 360 14 12
222 184 164 98 236 218 223 228 249 210 217 216 208 154 34 169 149 145 138 140 138 138 137 141 132 124 114 104 100 106 88 72 54 35 8 360 4 350 350 345 18 353 327 317
177 98 214 262 286 286 244 218 212 247 239 247 317 259 162 157 136 128 119 112 111 115 118 117 122 119 126 123 117 116 105 92 69 26 357 353 343 348 347 333 294 315 281 216
160 192 182 220 235 180 217 205 186 169 101 327 94 62 92 132 128 119 105 106 108 106 110 108 107 111 125 116 112 111 104 106 100 26 353 341 352 345 333 323 325 314 273 314